When you browse on this site, cookies collect data to enhance your experience and personalize the content and advertising you see.
Visit our Privacy Policy to learn more. By continuing to use the site, you agree to this use of cookies and data.
  • In Austria
  • List of Countries
  • For 7 days
  • Water Temperature
  • Weather Map
  • News
  • Weather Widgets
  • user-avatar
    Login

    Hourly Weather Hlukhiv Pershyi

    Today, 22 February, Saturday

    Time Temperature Precipitation Wind Pressure Humidity
    00:00 +1°C° 0 mm 2 mps 750 mmHg 87%
    01:00 +1°C° 0 mm 2 mps 750 mmHg 87%
    02:00 -1°C° 0 mm 2 mps 751 mmHg 87%
    03:00 -1°C° 0 mm 2 mps 751 mmHg 88%
    04:00 -1°C° 0 mm 2 mps 751 mmHg 89%
    05:00 -1°C° 0 mm 2 mps 751 mmHg 89%
    06:00 +1°C° 0 mm 1 mps 751 mmHg 89%
    07:00 +2°C° 0 mm 1 mps 752 mmHg 88%
    08:00 +2°C° 0 mm 1 mps 752 mmHg 88%
    09:00 +2°C° 0 mm 2 mps 752 mmHg 84%
    10:00 +3°C° 0 mm 2 mps 752 mmHg 80%
    11:00 +3°C° 0 mm 2 mps 752 mmHg 76%
    12:00 +3°C° 0 mm 3 mps 752 mmHg 74%
    13:00 +3°C° 0 mm 3 mps 752 mmHg 72%
    14:00 +4°C° 0 mm 4 mps 752 mmHg 69%
    15:00 +4°C° 0 mm 4 mps 751 mmHg 70%
    16:00 +3°C° 0 mm 4 mps 751 mmHg 70%
    17:00 +3°C° 0 mm 4 mps 750 mmHg 71%
    18:00 +3°C° 0 mm 4 mps 750 mmHg 72%
    19:00 +1°C° 0 mm 4 mps 749 mmHg 73%
    20:00 +1°C° 0 mm 4 mps 749 mmHg 75%
    21:00 +1°C° 0 mm 5 mps 748 mmHg 74%
    22:00 +1°C° 0 mm 5 mps 748 mmHg 74%
    23:00 +1°C° 0 mm 6 mps 747 mmHg 74%

    Tomorrow, 23 February, Sunday

    Time Temperature Precipitation Wind Pressure Humidity
    00:00 0°C° 0 mm 7 mps 746 mmHg 72%
    01:00 0°C° 0 mm 7 mps 746 mmHg 71%
    02:00 0°C° 0 mm 8 mps 745 mmHg 70%
    03:00 0°C° 0.1 mm 8 mps 744 mmHg 78%
    04:00 0°C° 0.1 mm 8 mps 743 mmHg 85%
    05:00 -1°C° 0.1 mm 8 mps 742 mmHg 93%
    06:00 0°C° 0.1 mm 8 mps 742 mmHg 89%
    07:00 +1°C° 0.1 mm 8 mps 741 mmHg 84%
    08:00 +1°C° 0.1 mm 8 mps 741 mmHg 80%
    09:00 +1°C° 0.3 mm 8 mps 741 mmHg 80%
    10:00 +2°C° 0.3 mm 8 mps 740 mmHg 80%
    11:00 +2°C° 0.3 mm 8 mps 740 mmHg 80%
    12:00 +2°C° 0.1 mm 8 mps 740 mmHg 71%
    13:00 +4°C° 0.1 mm 8 mps 740 mmHg 63%
    14:00 +5°C° 0.1 mm 8 mps 740 mmHg 54%
    15:00 +4°C° 0.1 mm 8 mps 739 mmHg 57%
    16:00 +3°C° 0.1 mm 7 mps 739 mmHg 61%
    17:00 +3°C° 0.1 mm 7 mps 739 mmHg 65%
    18:00 +2°C° 0 mm 6 mps 739 mmHg 69%
    19:00 +2°C° 0 mm 5 mps 739 mmHg 73%
    20:00 +1°C° 0 mm 4 mps 739 mmHg 77%
    21:00 +2°C° 0 mm 3 mps 738 mmHg 81%
    22:00 +1°C° 0 mm 3 mps 737 mmHg 85%
    23:00 +1°C° 0 mm 3 mps 736 mmHg 89%

    Day after tomorrow, 24 February, Monday

    Time Temperature Precipitation Wind Pressure Humidity
    00:00 +1°C° 0.5 mm 3 mps 734 mmHg 91%
    01:00 0°C° 0.5 mm 4 mps 732 mmHg 94%
    02:00 0°C° 0.5 mm 4 mps 731 mmHg 96%
    03:00 0°C° 2.7 mm 5 mps 729 mmHg 97%
    04:00 -1°C° 2.7 mm 5 mps 727 mmHg 97%
    05:00 -2°C° 2.7 mm 6 mps 725 mmHg 98%
    06:00 -2°C° 2.1 mm 8 mps 726 mmHg 97%
    07:00 -3°C° 2.1 mm 10 mps 727 mmHg 96%
    08:00 -4°C° 2.1 mm 11 mps 728 mmHg 96%
    09:00 -3°C° 0.1 mm 11 mps 730 mmHg 90%
    10:00 -3°C° 0.1 mm 10 mps 732 mmHg 85%
    11:00 -1°C° 0.1 mm 9 mps 734 mmHg 80%
    12:00 -1°C° 0 mm 9 mps 735 mmHg 81%
    13:00 -1°C° 0 mm 9 mps 736 mmHg 81%
    14:00 -1°C° 0 mm 9 mps 737 mmHg 81%
    15:00 -1°C° 0 mm 8 mps 738 mmHg 80%
    16:00 -1°C° 0 mm 7 mps 739 mmHg 79%
    17:00 -1°C° 0 mm 7 mps 739 mmHg 78%
    18:00 -1°C° 0 mm 6 mps 740 mmHg 78%
    19:00 -2°C° 0 mm 6 mps 741 mmHg 78%
    20:00 -2°C° 0 mm 6 mps 742 mmHg 79%
    21:00 -1°C° 0 mm 5 mps 743 mmHg 82%
    22:00 -2°C° 0 mm 5 mps 743 mmHg 84%
    23:00 -2°C° 0 mm 4 mps 744 mmHg 87%

    25 February, Tuesday

    Time Temperature Precipitation Wind Pressure Humidity
    00:00 -2°C° 0 mm 4 mps 744 mmHg 89%
    01:00 -2°C° 0 mm 4 mps 744 mmHg 90%
    02:00 -3°C° 0 mm 4 mps 744 mmHg 92%
    03:00 -3°C° 0 mm 4 mps 744 mmHg 93%
    04:00 -2°C° 0 mm 3 mps 744 mmHg 94%
    05:00 -2°C° 0 mm 3 mps 743 mmHg 95%
    06:00 -2°C° 0 mm 3 mps 743 mmHg 93%
    07:00 -2°C° 0 mm 4 mps 743 mmHg 92%
    08:00 -2°C° 0 mm 4 mps 743 mmHg 90%
    09:00 -1°C° 0 mm 5 mps 742 mmHg 84%
    10:00 -1°C° 0 mm 6 mps 742 mmHg 78%
    11:00 0°C° 0 mm 7 mps 741 mmHg 72%
    12:00 0°C° 0 mm 7 mps 741 mmHg 77%
    13:00 0°C° 0 mm 7 mps 740 mmHg 83%
    14:00 0°C° 0 mm 8 mps 739 mmHg 88%
    15:00 0°C° 0 mm 7 mps 739 mmHg 86%
    16:00 +1°C° 0 mm 6 mps 738 mmHg 83%
    17:00 +1°C° 0 mm 6 mps 738 mmHg 81%
    18:00 +2°C° 0 mm 6 mps 737 mmHg 80%
    19:00 +2°C° 0 mm 5 mps 737 mmHg 78%
    20:00 +2°C° 0 mm 5 mps 737 mmHg 76%
    21:00 +2°C° 0 mm 5 mps 736 mmHg 76%
    22:00 +2°C° 0 mm 5 mps 736 mmHg 76%
    23:00 +1°C° 0 mm 4 mps 736 mmHg 76%

    26 February, Wednesday

    Time Temperature Precipitation Wind Pressure Humidity
    00:00 +1°C° 0 mm 4 mps 735 mmHg 77%
    01:00 +1°C° 0 mm 4 mps 735 mmHg 78%
    02:00 +1°C° 0 mm 4 mps 734 mmHg 78%
    03:00 +1°C° 0 mm 4 mps 734 mmHg 78%
    04:00 +3°C° 0 mm 4 mps 734 mmHg 78%
    05:00 +3°C° 0 mm 4 mps 734 mmHg 79%
    06:00 +3°C° 0 mm 4 mps 734 mmHg 81%
    07:00 +3°C° 0 mm 3 mps 734 mmHg 84%
    08:00 +2°C° 0 mm 3 mps 734 mmHg 87%
    09:00 +4°C° 0 mm 2 mps 734 mmHg 84%
    10:00 +5°C° 0 mm 2 mps 734 mmHg 81%
    11:00 +7°C° 0 mm 1 mps 734 mmHg 78%
    12:00 +6°C° 0.1 mm 2 mps 733 mmHg 80%
    13:00 +5°C° 0.1 mm 3 mps 733 mmHg 82%
    14:00 +5°C° 0.1 mm 3 mps 733 mmHg 84%
    15:00 +5°C° 0.4 mm 3 mps 732 mmHg 87%
    16:00 +4°C° 0.4 mm 3 mps 732 mmHg 90%
    17:00 +5°C° 0.4 mm 2 mps 731 mmHg 93%
    18:00 +5°C° 0.2 mm 2 mps 731 mmHg 91%
    19:00 +4°C° 0.2 mm 2 mps 731 mmHg 90%
    20:00 +4°C° 0.2 mm 2 mps 731 mmHg 88%
    21:00 +4°C° 0 mm 2 mps 731 mmHg 88%
    22:00 +4°C° 0 mm 2 mps 731 mmHg 87%
    23:00 +4°C° 0 mm 2 mps 730 mmHg 87%

    27 February, Thursday

    Time Temperature Precipitation Wind Pressure Humidity
    00:00 +5°C° 0.1 mm 1 mps 730 mmHg 88%
    01:00 +5°C° 0.1 mm 1 mps 729 mmHg 89%
    02:00 +4°C° 0.1 mm 0 mps 729 mmHg 90%
    03:00 +4°C° 0.1 mm 0 mps 729 mmHg 92%
    04:00 +4°C° 0.1 mm 0 mps 729 mmHg 93%
    05:00 +4°C° 0.1 mm 0 mps 728 mmHg 94%
    06:00 +5°C° 0.6 mm 1 mps 729 mmHg 95%
    07:00 +3°C° 0.6 mm 3 mps 729 mmHg 95%
    08:00 +1°C° 0.6 mm 4 mps 729 mmHg 96%
    09:00 +1°C° 0.5 mm 4 mps 729 mmHg 92%
    10:00 +1°C° 0.5 mm 5 mps 730 mmHg 88%
    11:00 +1°C° 0.5 mm 5 mps 730 mmHg 84%
    12:00 +2°C° 0 mm 5 mps 731 mmHg 78%
    13:00 +3°C° 0 mm 5 mps 731 mmHg 71%
    14:00 +3°C° 0 mm 6 mps 731 mmHg 64%
    15:00 +3°C° 0 mm 5 mps 732 mmHg 66%
    16:00 +2°C° 0 mm 5 mps 732 mmHg 67%
    17:00 +2°C° 0 mm 5 mps 733 mmHg 69%
    18:00 +2°C° 0 mm 5 mps 733 mmHg 70%
    19:00 +1°C° 0 mm 4 mps 734 mmHg 71%
    20:00 0°C° 0 mm 4 mps 734 mmHg 72%
    21:00 0°C° 0 mm 4 mps 735 mmHg 73%
    22:00 +1°C° 0 mm 3 mps 735 mmHg 74%
    23:00 +2°C° 0 mm 2 mps 735 mmHg 76%
    Show more